Find Hai Yang 1-02

NORAD ID: 31113 Int'l Des: 2007-010 Owner: GYZ/CASC Country: CN operational
LEOCIRCULARRETROGRADESSO

实时位置

正在加载3D地球...

关于 Hai Yang 1-02

正在加载描述...

即将过境

Passes for default location (London). Set your location on the main map for personalized predictions.

高度历史

Loading altitude history...

两行轨道根数

1 31113U 07010A 26106.54487434 .00000052 00000-0 35525-4 0 9992
2 31113 98.3472 90.7919 0014133 28.9018 331.2946 14.31011458991813
Epoch: Apr 16, 2026 • Age: 24 hours

当前状态

高度 798.8 km
速度 7.45 km/s
星下点 9.83°N, 132.9°W
发射日期 Apr 11, 2007
运行时间 19 years
类型 other

技术详情

分类 Payload
质量 440.00 kg
干质量 440.00 kg
总质量 440.00 kg
长度 1.00 m
直径 1.00 m
跨度 4.00 m
形状 Box + 2 Pan
制造商 SISE
平台类型 CAST-968
阶段状态 In Orbit
所有者/国家 GYZ/CASC/CN

Most Searched